This demonstration page uses our WeatherBlox Daily Observations layout. Learn more.

Left ArrowRight Arrow

Hourly Observations for December 2, 2018

Temp ( °F °C ) Dew Point ( °F °C ) Humidity (%) Winds ( mph kmh ) Pressure ( in mb ) Visibility ( mi km ) Precip ( " mm )
12:53 am 00:53 Cloudy 32 0 28 -2.2 85 85 N 23 37 29.57 1001 9 14 0.00 0.00
1:53 am 01:53 Cloudy 31 -0.6 28 -2.2 89 89 NNW 25 41 29.59 1002 10 16 0.00 0.00
2:45 am 02:45 Cloudy 31 -0.6 27 -2.8 85 85 NNW 26 43 29.65 1004 7 11 0.00 0.03
2:53 am 02:53 Cloudy 31 -0.6 27 -2.8 85 85 N 23 37 29.62 1003 7 11 0.00 0.03
3:53 am 03:53 Windy with Snow Likely 31 -0.6 27 -2.8 85 85 NNW 23 37 29.65 1004 5 8 0.00 0.03
4:19 am 04:19 Windy with Snow Likely 30 -1 27 -3 86 86 NNW 31 50 29.71 1006 6 10 0.00 0.00
4:53 am 04:53 Cloudy 31 -0.6 26 -3.3 82 82 NNW 25 41 29.67 1005 10 16 0.00 0.03
5:53 am 05:53 Cloudy 30 -1.1 25 -3.9 82 82 N 23 37 29.69 1005 10 16 0.00 0.00
6:06 am 06:06 Cloudy 30 -1 25 -4 80 80 N 24 39 29.77 1008 10 16 0.00 0.00
6:53 am 06:53 Cloudy 30 -1.1 24 -4.4 79 79 NNW 23 37 29.72 1007 10 16 0.00 0.00
7:53 am 07:53 Cloudy 29 -1.7 23 -5 78 78 N 21 33 29.76 1008 10 16 0.00 0.00
8:28 am 08:28 Cloudy 29 -1.7 24 -4.4 82 82 N 23 37 29.80 1009 10 16 0.00 0.00
8:53 am 08:53 Cloudy 28 -2.2 24 -4.4 85 85 N 28 44 29.80 1009 10 16 0.00 0.00
9:48 am 09:48 Cloudy 28 -2 23 -5 80 80 N 23 37 29.85 1011 10 16 0.00 0.00
9:53 am 09:53 Cloudy 28 -2.2 23 -5 81 81 N 24 39 29.83 1010 10 16 0.00 0.00
10:53 am 10:53 Cloudy 28 -2.2 23 -5 81 81 NNW 21 33 29.86 1011 10 16 0.00 0.00
11:35 am 11:35 Windy with Snow Likely 28 -2.2 22 -5.6 78 78 NNW 21 33 29.91 1013 5 8 0.00 0.03
11:53 am 11:53 Windy with Snow Likely 27 -2.8 22 -5.6 81 81 N 23 37 29.88 1012 4 6 0.00 0.03
12:11 pm 12:11 Cloudy with Light Snow 28 -2.2 23 -5 81 81 N 17 28 29.91 1013 3 4 0.00 0.03
12:24 pm 12:24 Windy with Snow Likely 28 -2 23 -5 80 80 NNW 20 31 29.91 1013 2 2 0.00 0.00
12:34 pm 12:34 Cloudy with Light Snow 28 -2 23 -5 80 80 NNW 18 30 29.91 1013 3 4 0.00 0.00
12:41 pm 12:41 Windy with Snow Likely 28 -2 23 -5 80 80 N 21 33 29.91 1013 3 5 0.00 0.00
12:53 pm 12:53 Cloudy with Light Snow 28 -2.2 23 -5 81 81 N 18 30 29.88 1012 4 6 0.00 0.03
1:01 pm 13:01 Cloudy with Light Snow 28 -2.2 23 -5 81 81 N 18 30 29.91 1013 2 3 0.00 0.03
1:12 pm 13:12 Cloudy with Light Snow 28 -2 23 -5 80 80 NNW 18 30 29.91 1013 3 5 0.00 0.00
1:49 pm 13:49 Cloudy with Light Snow 28 -2 23 -5 80 80 N 18 30 29.94 1014 4 6 0.00 0.03
1:53 pm 13:53 Cloudy with Light Snow 27 -2.8 22 -5.6 81 81 N 17 28 29.91 1013 3 5 0.00 0.03
2:07 pm 14:07 Cloudy with Light Snow 27 -2.8 22 -5.6 81 81 N 17 28 29.97 1015 4 6 0.00 0.03
2:53 pm 14:53 Cloudy with Light Snow 27 -2.8 23 -5 85 85 N 15 24 29.93 1014 3 5 0.00 0.03
3:43 pm 15:43 Cloudy with Light Snow 27 -2.8 22 -5.6 81 81 NNW 18 30 30.03 1017 2 3 0.00 0.03
3:53 pm 15:53 Cloudy with Light Snow 27 -2.8 22 -5.6 81 81 N 16 26 29.97 1015 1 1 0.00 0.03
4:16 pm 16:16 Cloudy with Light Snow 27 -3 21 -6 80 80 N 16 26 30.03 1017 1 2 0.00 0.00
4:47 pm 16:47 Cloudy with Light Snow 27 -3 21 -6 80 80 N 14 22 30.06 1018 1 2 0.00 0.03
4:53 pm 16:53 Cloudy with Light Snow 26 -3.3 22 -5.6 84 84 N 17 28 30.00 1016 1 2 0.00 0.03
5:01 pm 17:01 Cloudy with Light Snow 26 -3.3 22 -5.6 84 84 N 17 28 30.06 1018 1 2 0.00 0.03
5:25 pm 17:25 Cloudy with Light Snow 26 -3.3 22 -5.6 84 84 N 14 22 30.06 1018 1 2 0.00 0.03
5:28 pm 17:28 Cloudy with Light Snow 27 -3 21 -6 80 80 N 14 22 30.06 1018 1 1 0.00 0.00
5:35 pm 17:35 Cloudy with Light Snow 25 -3.9 22 -5.6 88 88 N 17 28 30.09 1019 1 1 0.00 0.03
5:44 pm 17:44 Cloudy with Light Snow 26 -3.3 22 -5.6 84 84 N 14 22 30.09 1019 1 2 0.00 0.03
5:53 pm 17:53 Cloudy with Light Snow 25 -3.9 22 -5.6 88 88 N 13 20 30.03 1017 1 2 0.00 0.03
6:36 pm 18:36 Cloudy with Light Snow 25 -4 21 -6 86 86 N 18 30 30.09 1019 2 3 0.00 0.00
6:53 pm 18:53 Cloudy with Light Snow 25 -3.9 22 -5.6 88 88 N 15 24 30.06 1018 3 5 0.00 0.03
6:59 pm 18:59 Cloudy with Light Snow 25 -3.9 22 -5.6 88 88 N 13 20 30.12 1020 3 4 0.00 0.03
7:17 pm 19:17 Cloudy with Light Snow 25 -3.9 21 -6.1 85 85 N 16 26 30.12 1020 2 3 0.00 0.03
7:24 pm 19:24 Cloudy with Light Snow 25 -4 21 -6 86 86 N 15 24 30.12 1020 2 3 0.00 0.00
7:31 pm 19:31 Cloudy with Light Snow 25 -3.9 21 -6.1 85 85 N 15 24 30.12 1020 3 5 0.00 0.03
7:53 pm 19:53 Cloudy 25 -3.9 21 -6.1 85 85 N 18 30 30.08 1019 8 13 0.00 0.03
8:01 pm 20:01 Cloudy 25 -3.9 21 -6.1 85 85 N 17 28 30.15 1021 7 11 0.00 0.00
8:53 pm 20:53 Cloudy 24 -4.4 20 -6.7 84 84 N 18 30 30.11 1020 10 16 0.00 0.00
9:08 pm 21:08 Cloudy 25 -4 19 -7 80 80 N 17 28 30.15 1021 9 14 0.00 0.00
9:21 pm 21:21 Cloudy 24 -4.4 20 -6.7 84 84 N 17 28 30.21 1023 9 14 0.00 0.00
9:53 pm 21:53 Cloudy 23 -5 20 -6.7 88 88 N 20 31 30.13 1020 9 14 0.00 0.00
10:29 pm 22:29 Cloudy 23 -5 19 -7.2 85 85 N 14 22 30.21 1023 10 16 0.00 0.00
10:49 pm 22:49 Cloudy 23 -5 19 -7 86 86 N 17 28 30.24 1024 9 14 0.00 0.00
10:53 pm 22:53 Cloudy 23 -5 19 -7.2 85 85 N 15 24 30.15 1021 9 14 0.00 0.00
11:53 pm 23:53 Cloudy 22 -5.6 19 -7.2 89 89 N 13 20 30.18 1022 10 16 0.00 0.00

Powered by AerisWeather